sat.trackr.live / text

‹ back to catalog

STARLINK-4658

NORAD 53612 · 2022-104AA

PAYLOAD ACTIVE UNKNOWN

§ Identity

Operator
Country
US
Launch date
2022-08-28
Launch site
AFETR
Launch vehicle
Mass (kg)
RCS (m²)

Purposes: comms

External: N2YO · Heavens-Above · Gunter

§ Orbital elements

Epoch: 2026-05-24T23:54:24.511392Z

Period
95.44 min
Inclination
53.2138°
Eccentricity
0.0001112
Mean motion
15.08834017 rev/d
Perigee alt
539.0 km
Apogee alt
540.5 km
Semi-major
6,917.9 km
B*
1.4930e-5
RAAN
251.6421°
Arg perigee
75.6245°
Mean anomaly
284.4870°
Rev number
20,715

§ Raw data

STARLINK-46581 53612U 22104AA  26144.99611703 -.00000050  00000+0  14930-4 0  99952 53612  53.2138 251.6421 0001112  75.6245 284.4870 15.08834017207151

JSON: /api/v1/satellites/53612 · /tle

For live sub-satellite position, see the globe view (requires WebGL).

§ Visibility from observer

Set your observer location to see the next 7 days of passes ≥ 10°. The values pass through the URL so the page stays shareable.

No JS? Fill the form by hand. The geolocation button needs JavaScript.